This demonstration page uses our WeatherBlox Daily Observations layout. Learn more.

Left ArrowRight Arrow

Hourly Observations for October 6, 2015

Temp ( °F °C ) Dew Point ( °F °C ) Humidity (%) Winds ( mph kmh ) Pressure ( in mb ) Visibility ( mi km ) Precip ( " mm )
12:53 am 00:53 Clear 55 12.8 53 11.7 93 93 Calm 30.09 1019 10 16 0.00 0.00
1:53 am 01:53 Clear 54 12.2 52 11.1 93 93 Calm 30.08 1019 10 16 0.00 0.00
2:53 am 02:53 Clear 54 12.2 53 11.7 97 97 Calm 30.08 1019 10 16 0.00 0.00
3:53 am 03:53 Clear 52 11.1 51 10.6 97 97 Calm 30.08 1019 10 16 0.00 0.00
4:53 am 04:53 Clear 52 11.1 51 10.6 97 97 Calm 30.07 1018 10 16 0.00 0.00
5:53 am 05:53 Clear 52 11.1 51 10.6 97 97 Calm 30.07 1018 10 16 0.00 0.00
6:53 am 06:53 Clear 54 12.2 53 11.7 97 97 Calm 30.09 1019 10 16 0.00 0.00
7:53 am 07:53 Sunny 52 11.1 51 10.6 97 97 Calm 30.10 1019 8 13 0.00 0.00
8:53 am 08:53 Sunny 59 15 56 13.3 90 90 Calm 30.11 1020 9 14 0.00 0.00
9:53 am 09:53 Sunny 64 17.8 56 13.3 75 75 Calm 30.12 1020 10 16 0.00 0.00
10:53 am 10:53 Sunny 70 21.1 55 12.8 59 59 Calm 30.13 1020 10 16 0.00 0.00
11:53 am 11:53 Sunny 72 22.2 53 11.7 52 52 Calm 30.12 1020 10 16 0.00 0.00
12:53 pm 12:53 Sunny 73 22.8 53 11.7 50 50 Calm 30.11 1020 10 16 0.00 0.00
1:53 pm 13:53 Sunny 76 24.4 53 11.7 45 45 VRB 5 7 30.10 1019 10 16 0.00 0.00
2:53 pm 14:53 Sunny 77 25 53 11.7 43 43 Calm 30.08 1019 10 16 0.00 0.00
3:53 pm 15:53 Sunny 78 25.6 53 11.7 42 42 Calm 30.06 1018 10 16 0.00 0.00
4:53 pm 16:53 Sunny 78 25.6 55 12.8 45 45 Calm 30.05 1018 10 16 0.00 0.00
5:53 pm 17:53 Sunny 79 26.1 55 12.8 44 44 Calm 30.05 1018 10 16 0.00 0.00
6:53 pm 18:53 Mostly Sunny 71 21.7 62 16.7 73 73 Calm 30.05 1018 10 16 0.00 0.00
7:53 pm 19:53 Clear 64 17.8 57 13.9 78 78 Calm 30.06 1018 10 16 0.00 0.00
8:53 pm 20:53 Clear 60 15.6 57 13.9 90 90 Calm 30.06 1018 10 16 0.00 0.00
9:53 pm 21:53 Partly Cloudy 60 15.6 57 13.9 90 90 Calm 30.07 1018 10 16 0.00 0.00
10:53 pm 22:53 Clear 58 14.4 56 13.3 93 93 Calm 30.07 1018 10 16 0.00 0.00
11:53 pm 23:53 Clear 56 13.3 54 12.2 93 93 Calm 30.07 1018 10 16 0.00 0.00

Powered by AerisWeather